Voltar ao catálogo

STARLINK-4528

AtivoComunicaçõesVLEO
NORAD 53399·PAYLOAD·🇺🇸 United States

Lançado Aug 10, 2022 de Cape Canaveral Space Force Station

Loading…

Próximas Passagens (próximas 24 horas)

TLE

AtualizadoSource: CelesTrak SupGP

Época: Sep 15, 2026, 01:57 UTC

1 53399C 22097M   26258.08173611  .00035451  00000+0  10476-2 0  2584
2 53399  53.1604 346.7241 0001163  89.8085  99.4096 15.34366209    13

Acompanhe STARLINK-4528 em tempo real com AllMySat

Download on the App Store